DAL1738 KSLC-KLAX

Flight info

Callsign DAL1738
Flight time 1h 38m
Altitude 34000
Route ZIONZ1 EHK LAKRR Q73 HAKMN ANJLL4
Aircraft A21N/M-SDE2E3FGHIRWXY/LB1

Departure

Time 2026-04-22 03:07
Airport Salt Lake City International Airport (KSLC)

Arrival

Time 2026-04-22 04:45
Airport Los Angeles International Airport (KLAX)
Time Latitude Longitude Altitude Speed Heading
2026-04-22 02:51 40.78658 -111.97865 4231 ft 0 kts 205°
2026-04-22 02:56 40.78661 -111.97863 4231 ft 0 kts 205°
2026-04-22 02:56 40.78672 -111.97857 4232 ft 2 kts 204°
2026-04-22 02:57 40.78685 -111.97851 4233 ft 2 kts 196°
2026-04-22 02:57 40.78701 -111.97846 4232 ft 2 kts 186°
2026-04-22 02:57 40.78718 -111.97845 4231 ft 2 kts 171°
2026-04-22 02:57 40.78733 -111.97851 4232 ft 2 kts 143°
2026-04-22 02:58 40.78744 -111.97867 4233 ft 2 kts 105°
2026-04-22 02:58 40.78746 -111.97878 4232 ft 0 kts 85°
2026-04-22 02:58 40.78746 -111.97877 4232 ft 0 kts 85°
2026-04-22 02:59 40.78746 -111.97876 4233 ft 1 kts 85°
2026-04-22 02:59 40.78747 -111.97862 4233 ft 2 kts 85°
2026-04-22 03:00 40.78749 -111.97831 4233 ft 5 kts 85°
2026-04-22 03:00 40.78753 -111.97771 4232 ft 8 kts 85°
2026-04-22 03:00 40.78776 -111.97693 4232 ft 9 kts 39°
2026-04-22 03:00 40.78843 -111.97690 4232 ft 10 kts 354°
2026-04-22 03:01 40.78917 -111.97700 4234 ft 11 kts 354°
2026-04-22 03:01 40.78997 -111.97711 4235 ft 12 kts 354°
2026-04-22 03:01 40.79060 -111.97717 4233 ft 15 kts 356°
2026-04-22 03:01 40.79225 -111.97735 4229 ft 20 kts 353°
2026-04-22 03:02 40.79374 -111.97753 4228 ft 22 kts 355°
2026-04-22 03:02 40.79541 -111.97772 4227 ft 25 kts 355°
2026-04-22 03:02 40.79658 -111.97786 4226 ft 25 kts 355°
2026-04-22 03:02 40.79832 -111.97805 4229 ft 25 kts 355°
2026-04-22 03:03 40.80058 -111.97831 4234 ft 24 kts 355°
2026-04-22 03:03 40.80225 -111.97850 4236 ft 24 kts 355°
2026-04-22 03:03 40.80339 -111.97863 4236 ft 25 kts 355°
2026-04-22 03:03 40.80519 -111.97884 4233 ft 27 kts 355°
2026-04-22 03:04 40.80700 -111.97900 4231 ft 24 kts 12°
2026-04-22 03:04 40.80732 -111.97735 4228 ft 21 kts 121°
2026-04-22 03:04 40.80628 -111.97681 4230 ft 0 kts 175°
2026-04-22 03:05 40.80391 -111.97652 4235 ft 74 kts 174°
2026-04-22 03:06 40.79642 -111.97561 4228 ft 137 kts 174°
2026-04-22 03:06 40.78564 -111.97428 4319 ft 172 kts 174°
2026-04-22 03:06 40.77359 -111.97271 4466 ft 167 kts 175°
2026-04-22 03:06 40.76259 -111.97119 4496 ft 156 kts 175°
2026-04-22 03:07 40.75150 -111.96977 4646 ft 164 kts 174°
2026-04-22 03:07 40.73999 -111.96834 4858 ft 168 kts 178°
2026-04-22 03:07 40.72820 -111.96776 5045 ft 177 kts 179°
2026-04-22 03:07 40.71568 -111.96661 5224 ft 180 kts 178°
2026-04-22 03:08 40.70303 -111.96543 5410 ft 182 kts 179°
2026-04-22 03:08 40.69035 -111.96442 5614 ft 182 kts 179°
2026-04-22 03:08 40.67756 -111.96357 5799 ft 183 kts 179°
2026-04-22 03:08 40.66481 -111.96286 6007 ft 190 kts 178°
2026-04-22 03:09 40.65173 -111.96219 6443 ft 189 kts 178°
2026-04-22 03:09 40.63797 -111.96153 6689 ft 203 kts 178°
2026-04-22 03:09 40.62354 -111.96078 7003 ft 212 kts 179°
2026-04-22 03:09 40.60879 -111.95994 7495 ft 210 kts 180°
2026-04-22 03:10 40.59427 -111.95906 8108 ft 208 kts 180°
2026-04-22 03:10 40.57996 -111.95821 8659 ft 209 kts 180°
2026-04-22 03:10 40.56541 -111.95738 9234 ft 209 kts 180°
2026-04-22 03:10 40.55092 -111.95658 9829 ft 208 kts 181°
2026-04-22 03:11 40.53643 -111.95580 10354 ft 208 kts 180°
2026-04-22 03:11 40.52189 -111.95505 10854 ft 209 kts 180°
2026-04-22 03:11 40.50732 -111.95433 11375 ft 210 kts 180°
2026-04-22 03:11 40.49284 -111.95360 11880 ft 211 kts 179°
2026-04-22 03:12 40.47819 -111.95287 12406 ft 211 kts 179°
2026-04-22 03:12 40.44868 -111.95137 13411 ft 212 kts 178°
2026-04-22 03:12 40.43389 -111.95042 13855 ft 213 kts 177°
2026-04-22 03:13 40.41927 -111.94942 14301 ft 213 kts 177°
2026-04-22 03:13 40.40442 -111.94837 14736 ft 215 kts 177°
2026-04-22 03:13 40.38942 -111.94731 15176 ft 216 kts 177°
2026-04-22 03:13 40.37438 -111.94625 15596 ft 217 kts 176°
2026-04-22 03:14 40.35925 -111.94519 16010 ft 218 kts 177°
2026-04-22 03:14 40.34407 -111.94412 16418 ft 219 kts 177°
2026-04-22 03:14 40.32904 -111.94307 16810 ft 219 kts 176°
2026-04-22 03:14 40.31373 -111.94200 17195 ft 220 kts 177°
2026-04-22 03:15 40.29829 -111.94091 17551 ft 224 kts 177°
2026-04-22 03:15 40.28270 -111.93980 17874 ft 225 kts 177°
2026-04-22 03:15 40.26707 -111.93923 18250 ft 224 kts 181°
2026-04-22 03:15 40.25151 -111.94093 18493 ft 229 kts 185°
2026-04-22 03:16 40.23567 -111.94334 18841 ft 229 kts 186°
2026-04-22 03:16 40.21977 -111.94583 19188 ft 229 kts 186°
2026-04-22 03:16 40.20386 -111.94834 19487 ft 230 kts 186°
2026-04-22 03:16 40.18792 -111.95087 19791 ft 231 kts 187°
2026-04-22 03:17 40.17214 -111.95336 20098 ft 231 kts 187°
2026-04-22 03:17 40.15612 -111.95589 20387 ft 232 kts 187°
2026-04-22 03:17 40.14002 -111.95842 20666 ft 235 kts 187°
2026-04-22 03:17 40.12314 -111.96105 20725 ft 252 kts 187°
2026-04-22 03:18 40.10512 -111.96374 20837 ft 267 kts 187°
2026-04-22 03:18 40.08627 -111.96648 21115 ft 275 kts 187°
2026-04-22 03:18 40.06719 -111.96923 21552 ft 276 kts 187°
2026-04-22 03:18 40.04829 -111.97194 22003 ft 278 kts 188°
2026-04-22 03:19 40.02850 -111.97479 22137 ft 293 kts 188°
2026-04-22 03:19 40.00761 -111.97783 22273 ft 309 kts 188°
2026-04-22 03:19 39.98572 -111.98103 22400 ft 324 kts 188°
2026-04-22 03:19 39.96275 -111.98439 22539 ft 339 kts 188°
2026-04-22 03:20 39.93905 -111.98784 22671 ft 353 kts 188°
2026-04-22 03:20 39.91419 -111.99146 22933 ft 363 kts 188°
2026-04-22 03:20 39.88895 -111.99510 23469 ft 365 kts 188°
2026-04-22 03:20 39.86359 -111.99874 23984 ft 366 kts 188°
2026-04-22 03:21 39.83820 -112.00241 24461 ft 368 kts 188°
2026-04-22 03:21 39.81266 -112.00610 24945 ft 369 kts 188°
2026-04-22 03:21 39.78705 -112.00981 25351 ft 372 kts 188°
2026-04-22 03:21 39.76164 -112.01349 25812 ft 373 kts 188°
2026-04-22 03:22 39.73576 -112.01725 26265 ft 375 kts 189°
2026-04-22 03:22 39.70970 -112.02103 26676 ft 377 kts 189°
2026-04-22 03:22 39.68349 -112.02484 27058 ft 380 kts 189°
2026-04-22 03:22 39.65709 -112.02866 27488 ft 381 kts 189°
2026-04-22 03:23 39.63059 -112.03250 27869 ft 383 kts 189°
2026-04-22 03:23 39.60429 -112.03630 28161 ft 387 kts 189°
2026-04-22 03:23 39.57742 -112.04018 28514 ft 389 kts 189°
2026-04-22 03:23 39.55039 -112.04408 28893 ft 391 kts 189°
2026-04-22 03:24 39.52320 -112.04801 29243 ft 393 kts 189°
2026-04-22 03:24 39.49625 -112.05189 29578 ft 395 kts 189°
2026-04-22 03:24 39.46889 -112.05584 29901 ft 397 kts 189°
2026-04-22 03:24 39.44137 -112.05979 30193 ft 398 kts 189°
2026-04-22 03:25 39.41370 -112.06373 30495 ft 400 kts 189°
2026-04-22 03:25 39.38585 -112.06767 30721 ft 403 kts 189°
2026-04-22 03:25 39.35784 -112.07162 31005 ft 405 kts 189°
2026-04-22 03:25 39.32985 -112.07557 31415 ft 403 kts 189°
2026-04-22 03:26 39.30230 -112.07945 31830 ft 401 kts 189°
2026-04-22 03:26 39.27456 -112.08336 32223 ft 400 kts 189°
2026-04-22 03:26 39.24686 -112.08728 32604 ft 399 kts 189°
2026-04-22 03:26 39.21923 -112.09119 32989 ft 398 kts 190°
2026-04-22 03:27 39.19174 -112.09508 33341 ft 397 kts 190°
2026-04-22 03:27 39.16473 -112.10019 33597 ft 396 kts 194°
2026-04-22 03:27 39.13807 -112.10889 33788 ft 394 kts 200°
2026-04-22 03:27 39.11236 -112.12100 33826 ft 392 kts 205°
2026-04-22 03:28 39.06438 -112.15391 33854 ft 388 kts 211°
2026-04-22 03:28 39.01784 -112.18887 33870 ft 389 kts 211°
2026-04-22 03:29 38.97076 -112.22350 33883 ft 389 kts 211°
2026-04-22 03:29 38.92387 -112.25763 33881 ft 391 kts 211°
2026-04-22 03:30 38.87659 -112.29190 33885 ft 388 kts 211°
2026-04-22 03:30 38.82923 -112.32621 33879 ft 390 kts 211°
2026-04-22 03:31 38.78207 -112.36031 33865 ft 389 kts 211°
2026-04-22 03:31 38.73514 -112.39421 33852 ft 390 kts 211°
2026-04-22 03:32 38.68783 -112.42832 33816 ft 390 kts 211°
2026-04-22 03:32 38.64038 -112.46242 33844 ft 390 kts 211°
2026-04-22 03:33 38.59364 -112.49600 33798 ft 385 kts 211°
2026-04-22 03:33 38.54648 -112.52989 33800 ft 388 kts 211°
2026-04-22 03:34 38.49918 -112.56381 33807 ft 389 kts 211°
2026-04-22 03:34 38.45217 -112.59747 33817 ft 389 kts 211°
2026-04-22 03:35 38.40521 -112.63105 33819 ft 389 kts 211°
2026-04-22 03:35 38.35784 -112.66487 33837 ft 389 kts 211°
2026-04-22 03:36 38.31047 -112.69864 33837 ft 389 kts 211°
2026-04-22 03:36 38.26355 -112.73204 33825 ft 389 kts 211°
2026-04-22 03:37 38.21623 -112.76567 33821 ft 388 kts 211°
2026-04-22 03:37 38.16899 -112.79919 33827 ft 388 kts 211°
2026-04-22 03:38 38.12233 -112.83224 33820 ft 385 kts 211°
2026-04-22 03:38 38.07535 -112.86548 33803 ft 386 kts 211°
2026-04-22 03:39 38.02869 -112.89845 33804 ft 385 kts 211°
2026-04-22 03:39 37.98169 -112.93162 33814 ft 386 kts 211°
2026-04-22 03:40 37.93470 -112.96471 33825 ft 385 kts 211°
2026-04-22 03:40 37.88806 -112.99748 33891 ft 388 kts 211°
2026-04-22 03:41 37.84071 -113.03072 33917 ft 389 kts 211°
2026-04-22 03:41 37.79340 -113.06390 33948 ft 388 kts 211°
2026-04-22 03:42 37.74635 -113.09767 33955 ft 388 kts 212°
2026-04-22 03:42 37.70016 -113.13171 33951 ft 382 kts 212°
2026-04-22 03:43 37.65395 -113.16568 33953 ft 388 kts 212°
2026-04-22 03:43 37.60712 -113.19994 33937 ft 387 kts 212°
2026-04-22 03:44 37.57619 -113.22252 33920 ft 387 kts 212°
2026-04-22 03:44 37.51389 -113.26795 33871 ft 388 kts 212°
2026-04-22 03:45 37.46746 -113.30177 33844 ft 387 kts 212°
2026-04-22 03:45 37.42080 -113.33568 33807 ft 385 kts 212°
2026-04-22 03:46 37.37498 -113.36893 33785 ft 376 kts 212°
2026-04-22 03:46 37.32930 -113.40205 33788 ft 379 kts 212°
2026-04-22 03:47 37.29154 -113.42939 33827 ft 379 kts 212°
2026-04-22 03:47 37.24584 -113.46240 33834 ft 377 kts 212°
2026-04-22 03:48 37.19286 -113.50064 33852 ft 378 kts 213°
2026-04-22 03:48 37.14710 -113.53362 33859 ft 379 kts 213°
2026-04-22 03:49 37.10900 -113.56106 33878 ft 380 kts 212°
2026-04-22 03:49 37.07823 -113.58320 33883 ft 381 kts 212°
2026-04-22 03:50 37.02493 -113.62147 33869 ft 378 kts 212°
2026-04-22 03:50 36.98691 -113.64875 33859 ft 378 kts 212°
2026-04-22 03:51 36.97145 -113.65983 33851 ft 379 kts 212°
2026-04-22 03:51 36.88008 -113.72520 33820 ft 381 kts 213°
2026-04-22 03:52 36.82600 -113.76375 33802 ft 383 kts 213°
2026-04-22 03:52 36.78765 -113.79100 33790 ft 381 kts 213°
2026-04-22 03:53 36.74153 -113.82380 33778 ft 382 kts 213°
2026-04-22 03:53 36.69563 -113.85642 33794 ft 381 kts 213°
2026-04-22 03:54 36.64941 -113.88922 33785 ft 381 kts 213°
2026-04-22 03:54 36.60325 -113.92192 33798 ft 381 kts 213°
2026-04-22 03:55 36.55717 -113.95452 33791 ft 380 kts 213°
2026-04-22 03:55 36.51151 -113.98677 33790 ft 378 kts 213°
2026-04-22 03:56 36.46568 -114.01911 33775 ft 378 kts 213°
2026-04-22 03:56 36.42027 -114.05112 33771 ft 377 kts 213°
2026-04-22 03:57 36.37449 -114.08335 33790 ft 379 kts 213°
2026-04-22 03:57 36.32815 -114.11592 33788 ft 383 kts 213°
2026-04-22 03:58 36.28201 -114.14829 33778 ft 383 kts 213°
2026-04-22 03:58 36.23566 -114.18078 33777 ft 383 kts 213°
2026-04-22 03:59 36.18923 -114.21329 33781 ft 382 kts 213°
2026-04-22 03:59 36.14322 -114.24546 33771 ft 381 kts 213°
2026-04-22 04:00 36.09810 -114.27975 33765 ft 379 kts 219°
2026-04-22 04:00 36.05857 -114.32229 33771 ft 375 kts 228°
2026-04-22 04:01 36.02398 -114.37063 33763 ft 375 kts 230°
2026-04-22 04:01 35.98958 -114.41910 33765 ft 375 kts 230°
2026-04-22 04:02 35.95505 -114.46709 33786 ft 376 kts 230°
2026-04-22 04:02 35.92023 -114.51521 33808 ft 376 kts 230°
2026-04-22 04:03 35.88525 -114.56344 33831 ft 376 kts 230°
2026-04-22 04:03 35.85045 -114.61134 33778 ft 377 kts 230°
2026-04-22 04:04 35.81530 -114.65967 33850 ft 378 kts 230°
2026-04-22 04:04 35.78008 -114.70807 33855 ft 379 kts 230°
2026-04-22 04:05 35.74505 -114.75612 33856 ft 379 kts 230°
2026-04-22 04:05 35.71126 -114.80242 33902 ft 380 kts 230°
2026-04-22 04:06 35.67604 -114.85059 33907 ft 380 kts 230°
2026-04-22 04:06 35.64064 -114.89897 33911 ft 380 kts 230°
2026-04-22 04:07 35.60527 -114.94724 33895 ft 378 kts 229°
2026-04-22 04:07 35.57021 -114.99500 33895 ft 379 kts 229°
2026-04-22 04:08 35.53480 -115.04316 33926 ft 381 kts 230°
2026-04-22 04:08 35.49945 -115.09111 33917 ft 380 kts 229°
2026-04-22 04:09 35.46330 -115.13858 33914 ft 381 kts 228°
2026-04-22 04:09 35.42686 -115.18589 33951 ft 381 kts 228°
2026-04-22 04:10 35.39047 -115.23324 33936 ft 379 kts 228°
2026-04-22 04:10 35.35459 -115.27996 33959 ft 379 kts 228°
2026-04-22 04:11 35.31838 -115.32705 33952 ft 379 kts 228°
2026-04-22 04:11 35.30021 -115.35065 33809 ft 381 kts 229°
2026-04-22 04:11 35.28199 -115.37428 33534 ft 381 kts 229°
2026-04-22 04:12 35.26402 -115.39759 33297 ft 381 kts 229°
2026-04-22 04:12 35.24574 -115.42127 33037 ft 382 kts 229°
2026-04-22 04:12 35.22741 -115.44502 32772 ft 383 kts 229°
2026-04-22 04:12 35.20904 -115.46880 32515 ft 384 kts 229°
2026-04-22 04:13 35.19057 -115.49271 32065 ft 386 kts 229°
2026-04-22 04:13 35.17225 -115.51640 31391 ft 388 kts 229°
2026-04-22 04:13 35.15362 -115.54047 30676 ft 390 kts 229°
2026-04-22 04:13 35.13495 -115.56457 29945 ft 389 kts 229°
2026-04-22 04:14 35.11626 -115.58866 29084 ft 389 kts 229°
2026-04-22 04:14 35.09760 -115.61257 28274 ft 388 kts 229°
2026-04-22 04:14 35.07918 -115.63612 27497 ft 387 kts 229°
2026-04-22 04:14 35.06054 -115.65992 26753 ft 386 kts 229°
2026-04-22 04:15 35.04202 -115.68356 26012 ft 384 kts 229°
2026-04-22 04:15 35.02353 -115.70716 25285 ft 383 kts 229°
2026-04-22 04:15 35.00515 -115.73061 24578 ft 382 kts 229°
2026-04-22 04:15 34.98712 -115.75360 24166 ft 373 kts 229°
2026-04-22 04:16 34.96948 -115.77605 24010 ft 359 kts 229°
2026-04-22 04:16 34.93506 -115.81986 23958 ft 361 kts 229°
2026-04-22 04:16 34.91769 -115.84198 23957 ft 360 kts 229°
2026-04-22 04:17 34.90055 -115.86379 23960 ft 360 kts 229°
2026-04-22 04:17 34.88320 -115.88583 23960 ft 360 kts 229°
2026-04-22 04:17 34.86584 -115.90788 23951 ft 360 kts 229°
2026-04-22 04:17 34.84846 -115.92993 23952 ft 360 kts 229°
2026-04-22 04:18 34.83106 -115.95199 23960 ft 360 kts 229°
2026-04-22 04:18 34.81390 -115.97370 23958 ft 360 kts 229°
2026-04-22 04:18 34.79651 -115.99568 23934 ft 361 kts 229°
2026-04-22 04:18 34.77900 -116.01783 23943 ft 362 kts 229°
2026-04-22 04:19 34.76158 -116.03989 23946 ft 360 kts 229°
2026-04-22 04:19 34.74420 -116.06201 23947 ft 362 kts 229°
2026-04-22 04:19 34.72706 -116.08388 23946 ft 361 kts 229°
2026-04-22 04:19 34.70973 -116.10599 23945 ft 361 kts 229°
2026-04-22 04:20 34.69234 -116.12815 23946 ft 361 kts 229°
2026-04-22 04:20 34.67497 -116.15026 23954 ft 361 kts 229°
2026-04-22 04:20 34.65761 -116.17234 23950 ft 361 kts 229°
2026-04-22 04:20 34.64023 -116.19441 23951 ft 361 kts 229°
2026-04-22 04:21 34.62308 -116.21618 23946 ft 361 kts 229°
2026-04-22 04:21 34.60568 -116.23826 23946 ft 361 kts 229°
2026-04-22 04:21 34.58827 -116.26034 23949 ft 361 kts 229°
2026-04-22 04:21 34.57079 -116.28248 23953 ft 363 kts 229°
2026-04-22 04:22 34.55352 -116.30433 23955 ft 363 kts 229°
2026-04-22 04:22 34.53604 -116.32645 23956 ft 363 kts 229°
2026-04-22 04:22 34.51850 -116.34863 23951 ft 363 kts 229°
2026-04-22 04:22 34.50105 -116.37069 23956 ft 363 kts 229°
2026-04-22 04:23 34.48356 -116.39279 23962 ft 363 kts 229°
2026-04-22 04:23 34.46604 -116.41492 23961 ft 364 kts 229°
2026-04-22 04:23 34.44867 -116.43685 23962 ft 366 kts 229°
2026-04-22 04:23 34.43130 -116.45941 23962 ft 364 kts 232°
2026-04-22 04:24 34.41581 -116.48367 23963 ft 363 kts 237°
2026-04-22 04:24 34.40267 -116.50981 23973 ft 362 kts 243°
2026-04-22 04:24 34.39143 -116.53724 23976 ft 363 kts 245°
2026-04-22 04:24 34.38043 -116.56478 23969 ft 362 kts 245°
2026-04-22 04:25 34.36949 -116.59194 23969 ft 365 kts 245°
2026-04-22 04:25 34.35824 -116.61956 23974 ft 365 kts 245°
2026-04-22 04:25 34.34694 -116.64709 23996 ft 365 kts 245°
2026-04-22 04:25 34.33558 -116.67464 23994 ft 365 kts 245°
2026-04-22 04:26 34.32433 -116.70207 23950 ft 360 kts 245°
2026-04-22 04:26 34.31341 -116.72909 23749 ft 353 kts 245°
2026-04-22 04:26 34.30278 -116.75555 23546 ft 346 kts 245°
2026-04-22 04:26 34.29242 -116.78135 23275 ft 346 kts 245°
2026-04-22 04:27 34.28189 -116.80757 23006 ft 346 kts 245°
2026-04-22 04:27 34.27134 -116.83380 22747 ft 345 kts 245°
2026-04-22 04:27 34.26080 -116.85997 22357 ft 346 kts 245°
2026-04-22 04:27 34.25042 -116.88570 21899 ft 343 kts 245°
2026-04-22 04:28 34.23995 -116.91158 21391 ft 339 kts 245°
2026-04-22 04:28 34.22963 -116.93707 20883 ft 335 kts 245°
2026-04-22 04:28 34.21945 -116.96221 20392 ft 330 kts 245°
2026-04-22 04:28 34.20996 -116.98733 19909 ft 326 kts 250°
2026-04-22 04:29 34.20268 -117.01289 19465 ft 326 kts 252°
2026-04-22 04:29 34.19581 -117.03886 19064 ft 321 kts 252°
2026-04-22 04:29 34.18901 -117.06461 18938 ft 322 kts 252°
2026-04-22 04:29 34.18207 -117.09064 18905 ft 325 kts 252°
2026-04-22 04:30 34.17518 -117.11632 18746 ft 325 kts 252°
2026-04-22 04:30 34.16819 -117.14224 18513 ft 322 kts 252°
2026-04-22 04:30 34.16126 -117.16786 18272 ft 319 kts 252°
2026-04-22 04:30 34.15428 -117.19337 18085 ft 319 kts 252°
2026-04-22 04:31 34.14729 -117.21879 17828 ft 318 kts 252°
2026-04-22 04:31 34.14039 -117.24378 17472 ft 318 kts 252°
2026-04-22 04:31 34.13337 -117.26924 16806 ft 320 kts 252°
2026-04-22 04:31 34.12626 -117.29502 16032 ft 325 kts 251°
2026-04-22 04:32 34.11907 -117.32110 15277 ft 328 kts 251°
2026-04-22 04:32 34.11183 -117.34737 14535 ft 331 kts 251°
2026-04-22 04:32 34.10461 -117.37357 13811 ft 333 kts 251°
2026-04-22 04:32 34.09754 -117.40036 13003 ft 335 kts 252°
2026-04-22 04:33 34.09078 -117.42736 12334 ft 334 kts 252°
2026-04-22 04:33 34.08427 -117.45382 12073 ft 321 kts 252°
2026-04-22 04:33 34.07807 -117.47904 11993 ft 305 kts 252°
2026-04-22 04:33 34.07220 -117.50263 11977 ft 288 kts 252°
2026-04-22 04:34 34.06653 -117.52506 11977 ft 271 kts 252°
2026-04-22 04:34 34.06114 -117.54613 11977 ft 256 kts 252°
2026-04-22 04:34 34.05581 -117.56685 11979 ft 261 kts 252°
2026-04-22 04:34 34.05042 -117.58780 11978 ft 260 kts 252°
2026-04-22 04:35 34.04508 -117.60861 11978 ft 259 kts 252°
2026-04-22 04:35 34.03973 -117.62945 11979 ft 260 kts 252°
2026-04-22 04:35 34.03445 -117.65006 11978 ft 260 kts 252°
2026-04-22 04:35 34.02909 -117.67095 11988 ft 260 kts 252°
2026-04-22 04:36 34.02383 -117.69174 12020 ft 259 kts 254°
2026-04-22 04:36 34.02026 -117.71311 12271 ft 262 kts 261°
2026-04-22 04:36 34.01815 -117.73513 12366 ft 265 kts 262°
2026-04-22 04:36 34.01615 -117.75704 12295 ft 262 kts 262°
2026-04-22 04:37 34.01415 -117.77885 12035 ft 261 kts 261°
2026-04-22 04:37 34.01209 -117.80080 11558 ft 265 kts 261°
2026-04-22 04:37 34.00999 -117.82272 11056 ft 268 kts 261°
2026-04-22 04:37 34.00782 -117.84521 10554 ft 271 kts 261°
2026-04-22 04:38 34.00563 -117.86781 10060 ft 273 kts 261°
2026-04-22 04:38 34.00340 -117.89071 9414 ft 278 kts 261°
2026-04-22 04:38 34.00105 -117.91438 8450 ft 292 kts 261°
2026-04-22 04:38 33.99854 -117.93937 7543 ft 305 kts 262°
2026-04-22 04:39 33.99684 -117.95625 7145 ft 306 kts 262°
2026-04-22 04:39 33.99346 -117.98994 6466 ft 305 kts 263°
2026-04-22 04:39 33.99089 -118.01543 5868 ft 305 kts 263°
2026-04-22 04:39 33.98920 -118.03214 5665 ft 300 kts 263°
2026-04-22 04:40 33.98671 -118.05678 5332 ft 293 kts 263°
2026-04-22 04:40 33.98427 -118.08096 5024 ft 286 kts 264°
2026-04-22 04:40 33.98187 -118.10446 4615 ft 277 kts 264°
2026-04-22 04:40 33.97952 -118.12716 4199 ft 268 kts 264°
2026-04-22 04:41 33.97754 -118.14914 3766 ft 260 kts 265°
2026-04-22 04:41 33.97570 -118.17022 3354 ft 253 kts 265°
2026-04-22 04:41 33.97374 -118.19107 2924 ft 249 kts 265°
2026-04-22 04:41 33.97165 -118.21180 2500 ft 247 kts 264°
2026-04-22 04:42 33.96953 -118.23222 2124 ft 241 kts 264°
2026-04-22 04:42 33.96745 -118.25161 1993 ft 223 kts 264°
2026-04-22 04:42 33.96560 -118.26849 1975 ft 188 kts 264°
2026-04-22 04:42 33.96396 -118.28364 1927 ft 185 kts 265°
2026-04-22 04:43 33.96250 -118.29884 1900 ft 175 kts 266°
2026-04-22 04:43 33.96107 -118.31343 1670 ft 176 kts 265°
2026-04-22 04:43 33.95954 -118.32828 1383 ft 179 kts 265°
2026-04-22 04:43 33.95803 -118.34305 1135 ft 176 kts 264°
2026-04-22 04:44 33.95650 -118.35733 877 ft 161 kts 264°
2026-04-22 04:44 33.95514 -118.36961 665 ft 140 kts 265°
2026-04-22 04:44 33.95429 -118.38088 439 ft 131 kts 264°
2026-04-22 04:44 33.95317 -118.39151 257 ft 122 kts 264°
2026-04-22 04:45 33.95215 -118.40099 143 ft 107 kts 264°
2026-04-22 04:45 33.95191 -118.40380 124 ft 101 kts 264°
2026-04-22 04:45 33.95150 -118.40821 121 ft 5 kts 263°
2026-04-22 04:45 33.95123 -118.40927 125 ft 7 kts 244°
2026-04-22 04:46 33.95124 -118.40992 124 ft 9 kts 273°
2026-04-22 04:46 33.95119 -118.41075 121 ft 10 kts 244°
2026-04-22 04:46 33.95067 -118.41101 124 ft 8 kts 155°
2026-04-22 04:46 33.95013 -118.41092 125 ft 0 kts 168°
2026-04-22 04:47 33.95010 -118.41092 125 ft 0 kts 173°